C/2024 N3 ( Sarneczky )

Japanese version
Home page
Updated on September 3, 2024

---------------------------------------------------------------------

* Profile

Discovery Date July 8, 2024
Magnitude 19.6 mag
Discoverer Krisztian Sarneczky (Piszkesteto Observatory in Hungary)

* Pictures

* Orbital Elements

Epoch 2024 Oct. 17.0 TT = JDT 2460600.5
T 2025 Apr. 11.32910 TT                                 Rudenko
q   5.0147549            (2000.0)            P               Q
z  -0.0001682      Peri.   86.86990     -0.01493752     -0.12965352
 +/-0.0000116      Node    82.60873     -0.34479079     -0.93007281
e   1.0008436      Incl.   88.72913     +0.93856070     -0.34373615
>From 127 observations 2023 Oct. 9-2024 Aug. 31, mean residual 0".5.

* Magnitudes Graph

        m1 = 8.0 + 5 log d + 10.0 log r

---------------------------------------------------------------------

The orbital elements are published on M.P.E.C. 2024-R10.
The magnitudes graphs are made with Comet for Windows.

---------------------------------------------------------------------

Copyright(C) Seiichi Yoshida (comet@aerith.net). All rights reserved.